User: anonymous
Location: NJAA Observatory
(40.6819°N, 74.8979°W)
Time: 09:59:56
(UTC-04:00)
Language:

Cosmos 1328 Rocket - Orbit

View from above orbital plane
View from above orbital plane
View from above satellite
View from above satellite

Ground track
Ground track

The orbit data is extracted from the following two-line orbital elements,

1 12988U 81117B   14261.46484546  .00000394  00000-0  44244-4 0  1485
2 12988 082.5227 293.6247 0016709 278.8595 204.2988 14.84108795771056
Epoch (UTC): 18 September 2014 11:09:22
Eccentricity: 0.0016709
inclination: 82.5227°
perigee height: 605 km
apogee height: 628 km
right ascension of ascending node: 293.6247°
argument of perigee: 278.8595°
revolutions per day: 14.84108795
mean anomaly at epoch: 204.2988°
orbit number at epoch: 77105

The dashed part of the orbit path shows where the satellite is in the earth's shadow,  

DLR